[[{"header":{"parameterUnit":"m.s-1","parameterCategory":1,"la1":30.2991,"la2":30.254,"lo1":-89.0895,"lo2":-89.0444,"dy":0.0017,"dx":0.0017,"nx":28,"ny":28,"refTime":"2025-05-27T21:00:00:Z","depth":0,"parameterNumber":2,"parameterNumberName":"U-component_of_WINDS"},"data":[0,0,0,0,0,0,0,0,0,0,0,0,0,0,0,0,0,0,0,0,0,0,0,0,0,0,0,0,0,0,0,0,0,0,0,0,0,0,0,0,0,0,0,0,0,0,0,0,0,0,0,0,0,0,0,0,0,0,-0.0764,-0.0761,0,-0.0461,-0.0458,-0.0454,-0.0405,-0.0408,-0.041,-0.0413,-0.0079,-0.0068,-0.0057,0,0,0,0,0,0,0,0,0,0,0,0,0,-0.1279,-0.127,-0.0764,-0.0761,-0.0757,-0.0462,-0.0457,-0.0453,-0.0404,-0.0408,-0.0411,-0.0414,-0.0083,-0.0069,-0.0056,0,0,0,0,0,0,0,0,0,0,0,0,0,-0.1023,-0.1267,-0.0765,-0.0697,-0.0688,-0.0463,-0.0457,-0.0452,-0.0404,-0.0408,-0.0412,-0.0416,-0.0087,-0.0071,-0.0054,0.0133,0,0,-0.0002,0.0006,0,0,0,0,0,0,0,0,-0.1038,-0.1004,-0.0711,-0.0702,-0.0691,-0.0476,-0.0517,-0.0255,-0.0403,-0.0511,-0.0413,-0.0418,-0.0206,-0.018,-0.0113,0.0149,0.0163,-0.0,0.001,0.0018,0.0022,0,0,0,0,0,0,0,-0.1055,-0.1017,-0.0644,-0.0707,-0.0695,-0.0675,-0.0643,-0.0467,-0.0339,-0.0502,-0.0498,-0.0464,-0.0201,-0.013,-0.0105,0.0168,-0.0001,0.0015,0.0025,0.0032,0.06,0.0605,0,0,0,0,0,0,-0.1089,-0.1032,-0.0653,-0.0635,-0.0879,-0.0663,-0.0627,-0.054,-0.0341,-0.0315,-0.0461,-0.0463,-0.0157,-0.0125,-0.0093,0.014,0.0017,0.0034,0.0043,0.0596,0.0602,0.0607,0,0,0,0,0,0,-0.11,-0.1055,-0.0665,-0.0832,-0.0781,-0.065,-0.0552,-0.0532,-0.0461,-0.031,-0.0284,-0.0413,-0.0159,-0.0117,0.0075,0.0152,0.0041,0.0057,0.059,0.0597,0.0604,0.0605,0,0,0,0,0,0,-0.1115,-0.106,-0.0993,-0.0831,-0.0773,-0.0509,-0.0548,-0.0523,-0.0434,-0.0434,-0.0258,-0.0232,-0.0159,0.0049,0.0092,0.0174,0.007,0.0584,0.0593,0.0602,0.0599,0.0612,0.0623,0,0,0,0,0,-0.1133,-0.0999,-0.099,-0.0944,-0.0687,-0.0505,-0.0471,-0.0396,-0.0428,-0.0356,-0.0259,-0.0238,0.0136,0.0068,0.0117,0.0205,0.0579,0.0591,0.0601,0.0594,0.0609,0.0622,0,0,0,0,0,0,-0.1147,-0.0977,-0.0964,-0.0776,-0.0656,-0.0498,-0.0405,-0.0382,-0.0244,-0.0249,-0.0154,-0.0114,0.0073,0.0159,0.008,0.0397,0.0356,0.0377,0.0334,0.035,0.0361,0.0338,0.0084,0,0,0,0,0,-0.113,-0.1003,-0.0858,-0.0705,-0.0647,-0.0537,-0.0454,-0.0408,-0.0276,-0.0223,-0.0112,0.002,0.0168,0.0264,0.0408,0.0611,0.0653,0.0696,0.0708,0.0717,0.0735,0.0851,0.0873,0.0643,0.0643,0.0642,0,0,-0.1089,-0.0981,-0.0905,-0.0706,-0.0608,-0.0472,-0.0494,-0.0349,-0.0246,-0.0198,-0.0013,0.0074,0.0229,0.0427,0.052,0.0504,0.0807,0.0731,0.0736,0.0751,0.0865,0.0886,0.0906,0.065,0.0649,0.0647,0,0,-0.0947,-0.0854,-0.0717,-0.0619,-0.0474,-0.0401,-0.0368,-0.0213,-0.0156,0.003,0.0068,0.0197,0.0448,0.0557,0.0645,0.0827,0.0854,0.0873,0.0935,0.1047,0.1066,0.1082,0.115,0.1172,0.089,0.089,0.089,0,-0.0913,-0.0715,-0.0646,-0.0505,-0.0416,-0.0376,-0.0232,-0.0138,0.0051,0.0114,0.0091,0.0407,0.0514,0.0739,0.0783,0.0852,0.0898,0.0854,0.1056,0.1073,0.109,0.1156,0.118,0.0891,0.0891,0.0891,0.0891,0,-0.0679,-0.0542,-0.0447,-0.0275,-0.0175,-0.0033,0.0063,0.0157,0.0196,0.0273,0.0465,0.0594,0.0765,0.0822,0.0864,0.1054,0.1039,0.1035,0.0996,0.1112,0.1175,0.1201,0.0893,0.0893,0.0892,0.0892,0,0,-0.0535,-0.033,-0.0296,-0.0217,-0.0054,0.0058,0.0204,0.0363,0.0444,0.0573,0.0702,0.0912,0.0908,0.1009,0.1064,0.1162,0.1301,0.1147,0.1152,0.1172,0.1522,0.1525,0.1552,0.1317,0.1322,0.1327,0.1509,0,-0.0372,-0.012,-0.0053,0.0165,0.0295,0.0336,0.0464,0.0582,0.0658,0.0786,0.0874,0.1021,0.1004,0.1064,0.1163,0.1262,0.1372,0.125,0.1445,0.1451,0.1405,0.1585,0.159,0.1755,0.1534,0.1538,0.1542,0,-0.0148,-0.0023,0.0206,0.0352,0.0409,0.0522,0.0674,0.0793,0.093,0.0979,0.1088,0.1134,0.1295,0.1245,0.1471,0.1386,0.147,0.1531,0.154,0.1563,0.1504,0.1616,0.181,0.1836,0.1581,0.1578,0.1575,0,-0.0064,0.0163,0.0329,0.0395,0.057,0.0648,0.0726,0.0858,0.095,0.1086,0.1147,0.1302,0.1389,0.1511,0.1599,0.1554,0.182,0.1776,0.187,0.1868,0.1927,0.1922,0.2139,0.1976,0.1976,0.1976,0.1975,0,0.0112,0.0251,0.0368,0.0471,0.063,0.0707,0.0865,0.0946,0.1063,0.1187,0.1234,0.1352,0.146,0.1594,0.1665,0.1843,0.1882,0.1931,0.1949,0.1928,0.1922,0.1986,0.1978,0.1982,0.1981,0.1979,0.1978,0,0.0233,0.0317,0.0501,0.0649,0.0689,0.08,0.0931,0.1036,0.1112,0.1269,0.1311,0.1433,0.1593,0.1692,0.1898,0.1946,0.2142,0.2155,0.2094,0.2102,0.2191,0.2182,0.2459,0.2501,0.2307,0.2309,0.231,0,0.0341,0.0448,0.0605,0.0687,0.0763,0.0897,0.0989,0.1071,0.1166,0.1329,0.1416,0.1576,0.171,0.1964,0.2077,0.2235,0.2254,0.234,0.2279,0.2254,0.2259,0.2252,0.2265,0.2351,0.2353,0.2354,0.2355,0,0.0524,0.0559,0.0685,0.0827,0.0933,0.1051,0.1169,0.1236,0.1339,0.1445,0.1604,0.1706,0.1912,0.2074,0.2241,0.233,0.2363,0.2373,0.2403,0.2385,0.2345,0.237,0.2124,0.2367,0.2366,0.2365,0.2364,0.2364,0.0644,0.0741,0.0866,0.1006,0.1101,0.121,0.1315,0.1402,0.1533,0.1702,0.1744,0.1912,0.205,0.2276,0.2368,0.2506,0.2495,0.2538,0.255,0.256,0.2563,0.2319,0.2537,0.2537,0.2537,0.2536,0.2536,0,0.0831,0.0912,0.104,0.1199,0.1311,0.1322,0.1453,0.1548,0.1693,0.1814,0.1942,0.2127,0.2283,0.2406,0.2568,0.2655,0.2675,0.2696,0.2692,0.2713,0.2563,0.252,0.2677,0.2677,0.2677,0.2677,0.2677,0.2677,0.0942,0.1107,0.1157,0.1372,0.1455,0.1613,0.1688,0.179,0.1887,0.2089,0.2215,0.2291,0.2416,0.2587,0.2733,0.2766,0.2825,0.2844,0.288,0.2738,0.2723,0.2708,0.267,0.2855,0.2855,0.3019,0.3021,0.3022]},{"header":{"parameterUnit":"m.s-1","parameterCategory":1,"la1":30.2991,"la2":30.254,"lo1":-89.0895,"lo2":-89.0444,"dy":0.0017,"dx":0.0017,"nx":28,"ny":28,"refTime":"2025-05-27T21:00:00:Z","depth":0,"parameterNumber":3,"parameterNumberName":"V-component_of_WINDS"},"data":[0,0,0,0,0,0,0,0,0,0,0,0,0,0,0,0,0,0,0,0,0,0,0,0,0,0,0,0,0,0,0,0,0,0,0,0,0,0,0,0,0,0,0,0,0,0,0,0,0,0,0,0,0,0,0,0,0,0,0.2226,0.2225,0,0.2061,0.2059,0.2057,0.1949,0.1948,0.1947,0.1947,0.1783,0.1779,0.1776,0,0,0,0,0,0,0,0,0,0,0,0,0,0.2459,0.2455,0.2227,0.2225,0.2222,0.2061,0.2059,0.2057,0.1949,0.1948,0.1947,0.1946,0.1784,0.178,0.1775,0,0,0,0,0,0,0,0,0,0,0,0,0,0.2333,0.2454,0.2227,0.2149,0.214,0.2062,0.2059,0.2056,0.1949,0.1948,0.1947,0.1946,0.1786,0.178,0.1775,0.1762,0,0,0.1758,0.1755,0,0,0,0,0,0,0,0,0.234,0.2324,0.2163,0.2154,0.2145,0.2024,0.2081,0.1958,0.1949,0.2022,0.1947,0.1946,0.1865,0.1852,0.1824,0.1754,0.1747,0.1757,0.1754,0.1752,0.175,0,0,0,0,0,0,0,0.2349,0.2331,0.2161,0.2161,0.2149,0.2126,0.2106,0.2057,0.1952,0.2016,0.2007,0.1989,0.1859,0.183,0.1819,0.1745,0.1758,0.1753,0.1749,0.1747,0.1663,0.1664,0,0,0,0,0,0,0.2369,0.2339,0.2166,0.2156,0.2241,0.2122,0.2101,0.2064,0.1952,0.1933,0.199,0.1984,0.1839,0.1826,0.1813,0.1794,0.1752,0.1746,0.1743,0.1661,0.1663,0.1664,0,0,0,0,0,0,0.2374,0.2354,0.2173,0.2245,0.222,0.2119,0.2079,0.2061,0.2031,0.1932,0.1914,0.1978,0.1838,0.1821,0.1776,0.1786,0.1744,0.1739,0.166,0.1662,0.1663,0.1753,0,0,0,0,0,0,0.2381,0.2357,0.2348,0.2246,0.2217,0.2136,0.2079,0.2059,0.2021,0.2012,0.1916,0.1899,0.1836,0.1785,0.1771,0.1778,0.1735,0.1659,0.1661,0.1663,0.1749,0.1758,0.1765,0,0,0,0,0,0.239,0.238,0.2348,0.2328,0.2203,0.2137,0.2121,0.2046,0.2022,0.2015,0.1952,0.1902,0.1788,0.1782,0.1764,0.177,0.1658,0.166,0.1663,0.1745,0.1756,0.1765,0,0,0,0,0,0,0.2487,0.2365,0.2328,0.2285,0.2222,0.2119,0.2106,0.2059,0.2003,0.1998,0.191,0.1889,0.1855,0.1808,0.1803,0.1755,0.1717,0.1717,0.1786,0.1795,0.1804,0.1816,0.173,0,0,0,0,0,0.2504,0.2457,0.2354,0.2326,0.2296,0.2208,0.2175,0.2124,0.2056,0.203,0.1963,0.1902,0.1852,0.1821,0.177,0.1742,0.1722,0.1739,0.1747,0.1754,0.1754,0.1741,0.1748,0.1672,0.1672,0.1672,0,0,0.2537,0.2465,0.244,0.2344,0.2289,0.2246,0.2185,0.2142,0.211,0.2023,0.1977,0.1928,0.1854,0.1819,0.18,0.1779,0.1772,0.1757,0.1764,0.176,0.1744,0.1752,0.1758,0.1674,0.1673,0.1673,0,0,0.2576,0.2515,0.2486,0.2434,0.2352,0.2294,0.2288,0.2192,0.2156,0.2108,0.2043,0.2007,0.1922,0.1873,0.1837,0.1865,0.1818,0.1851,0.1893,0.1881,0.1887,0.1892,0.1905,0.191,0.1851,0.1852,0.1852,0,0.2627,0.2558,0.2478,0.2439,0.2401,0.232,0.2293,0.2247,0.2154,0.213,0.2108,0.2003,0.1947,0.1902,0.1909,0.1882,0.1875,0.186,0.1893,0.1897,0.19,0.1912,0.1916,0.1856,0.1856,0.1855,0.1855,0,0.2628,0.2581,0.2569,0.248,0.244,0.2408,0.2327,0.2297,0.2251,0.2197,0.2153,0.2084,0.2019,0.2005,0.1959,0.1955,0.1944,0.1909,0.1869,0.1914,0.1923,0.1926,0.1863,0.1861,0.186,0.1859,0,0,0.2719,0.2591,0.2587,0.2548,0.2455,0.2419,0.2386,0.2322,0.23,0.224,0.2212,0.2145,0.2113,0.2072,0.2021,0.2011,0.2042,0.1976,0.1973,0.1993,0.2037,0.2066,0.2072,0.2011,0.2011,0.2011,0.2045,0,0.2745,0.2677,0.2608,0.2567,0.2526,0.2452,0.2423,0.2366,0.2316,0.2276,0.2222,0.2177,0.2136,0.2112,0.2098,0.2041,0.205,0.2037,0.1987,0.1986,0.2008,0.2076,0.2104,0.2139,0.2047,0.2048,0.2048,0,0.2765,0.2709,0.2664,0.2579,0.2559,0.2534,0.2473,0.2434,0.237,0.2335,0.2293,0.2239,0.2205,0.2171,0.2125,0.2118,0.2095,0.2064,0.2064,0.2057,0.202,0.2073,0.2147,0.2153,0.2053,0.2052,0.2052,0,0.284,0.2753,0.2715,0.2684,0.2583,0.2569,0.2527,0.246,0.2428,0.2376,0.2355,0.23,0.2271,0.2231,0.2167,0.2147,0.2129,0.2089,0.2102,0.2104,0.2101,0.2102,0.2175,0.2084,0.2084,0.2084,0.2084,0,0.2876,0.2852,0.2748,0.2725,0.2698,0.2621,0.2597,0.2549,0.2492,0.2462,0.2395,0.2369,0.2284,0.2249,0.2199,0.2171,0.2157,0.2131,0.2118,0.2137,0.2141,0.212,0.2117,0.2085,0.2085,0.2085,0.2085,0,0.2954,0.2883,0.2838,0.2747,0.2725,0.2709,0.2633,0.2611,0.2559,0.2522,0.2509,0.2428,0.2384,0.2316,0.2251,0.2218,0.22,0.2177,0.2221,0.2213,0.2231,0.2232,0.2294,0.23,0.2205,0.2206,0.2207,0,0.2981,0.2961,0.287,0.2844,0.2805,0.2764,0.2731,0.2657,0.2626,0.2554,0.2542,0.2493,0.2449,0.2383,0.2321,0.2273,0.225,0.2275,0.2242,0.2264,0.2253,0.2256,0.2255,0.2283,0.2284,0.2286,0.2286,0,0.304,0.3007,0.2961,0.2906,0.2869,0.2821,0.2771,0.2754,0.267,0.264,0.2594,0.256,0.2496,0.245,0.2394,0.2354,0.2308,0.2298,0.2299,0.2319,0.2346,0.2334,0.2244,0.2296,0.2295,0.2295,0.2294,0.2294,0.3094,0.3075,0.3009,0.2962,0.2917,0.2873,0.2848,0.2795,0.2754,0.2695,0.2655,0.2612,0.2554,0.2474,0.2438,0.2406,0.2386,0.2386,0.2387,0.2388,0.2397,0.2351,0.2396,0.2395,0.2395,0.2395,0.2394,0,0.3151,0.3106,0.3064,0.2996,0.2961,0.292,0.2864,0.2838,0.2801,0.2749,0.2709,0.2659,0.2615,0.2551,0.2504,0.2491,0.2469,0.2482,0.2482,0.2475,0.2417,0.2421,0.25,0.25,0.25,0.25,0.25,0.25,0.3177,0.3143,0.3104,0.3049,0.3005,0.2962,0.2934,0.2895,0.2854,0.2801,0.2763,0.2722,0.2667,0.2616,0.2576,0.2558,0.2545,0.2564,0.2541,0.2488,0.2478,0.2469,0.2473,0.2562,0.2562,0.2602,0.2602,0.2603]}]]